sat.trackr.live / text

‹ back to catalog

LEMUR-2-DELOITTE-4

NORAD 69934 · 2026-156BT

PAYLOAD ACTIVE UNKNOWN

§ Identity

Operator
Country
US
Launch date
2026-07-07
Launch site
AFWTR
Launch vehicle
Mass (kg)
RCS (m²)

External: N2YO · Heavens-Above · Gunter

§ Orbital elements

Epoch: 2026-09-19T22:58:13.438272Z

Period
96.47 min
Inclination
97.7459°
Eccentricity
0.0007920
Mean motion
14.92739027 rev/d
Perigee alt
583.9 km
Apogee alt
594.9 km
Semi-major
6,967.5 km
B*
1.2701e-4
RAAN
162.2584°
Arg perigee
275.8648°
Mean anomaly
84.1669°
Rev number
1,113

§ Raw data

LEMUR-2-DELOITTE-41 69934U 26156BT  26262.95709998  .00001256  00000+0  12701-3 0  99922 69934  97.7459 162.2584 0007920 275.8648  84.1669 14.92739027 11134

JSON: /api/v1/satellites/69934 · /tle

For live sub-satellite position, see the globe view (requires WebGL).

§ Visibility from observer

Set your observer location to see the next 7 days of passes ≥ 10°. The values pass through the URL so the page stays shareable.

No JS? Fill the form by hand. The geolocation button needs JavaScript.